Location: Avully
(45.9633°N, 6.0228°E)
Time: 21:46:38
(UTC+00:00)

Cosmos 2360 Rocket - Pass Details

Date: 15 August 2024
Orbit: 834 x 843 km, 71.0° (Epoch: 10 September)

Event Time Altitude Azimuth Distance (km) Brightness Sun altitude
Exits shadow 23:36:49 68° 352° (N) 907 2.4 -30.4°
Drops below altitude 10° 23:41:52 10° 24° (NNE) 2,468 5.4 -30.4°
Sets 23:44:19 0° 26° (NNE) 3,405 6.3 -30.4°
